372  
ASHW40 PHFO 211512  
RWRHI  
 
WEATHER ROUNDUP FOR HAWAII  
NATIONAL WEATHER SERVICE HONOLULU HI  
500 AM HST SAT MAY 21 2022  
 
THIS IS AN AUTOMATED REPORT THAT HAS NOT BEEN QUALITY CONTROLLED.  
 
NOTE..."FAIR" INDICATES FEW OR NO CLOUDS BELOW 12,000 FEET WITH NO  
SIGNIFICANT WEATHER AND/OR S TO VISIBILITY
.  
 
* - THESE SITES REPORT LIMITED FIELDS  
# - BUOY DATA PROVIDED BY PACIFIC ISLANDS OCEAN OBSERVING SYSTEM.  
 
HIZ001-003-004-029>031-211600-  
KAUAI-NIIHAU-  
 
CITY SKY/WX TMP DP RH WIND PRES REMARKS
 
LIHUE APT MOCLDY 69 69 100 W5 30.04R  
PORT ALLEN* NOT AVBL  
POIPU* N/A 73 N/A N/A N1 N/A  
PRINCEVILLE* NOT AVBL  
KOKOLE POINT* NOT AVBL  
MOLOAA DAIRY* N/A 70 70 100 CALM N/A  
WAIMEA HTS* NOT AVBL  
PUU OPAE* NOT AVBL  
PUU LUA* NOT AVBL  
MAKAHA RIDGE* NOT AVBL  

 
 
HIZ006-007-009>011-032>036-211600-  
OAHU-  
 
CITY SKY/WX TMP DP RH WIND PRES REMARKS
 
HONOLULU CLOUDY 75 71 87 CALM 30.03R  
KALAELOA CLOUDY N/A N/A N/A NE3 30.04R  
KANEOHE MCB CLOUDY N/A N/A N/A CALM 30.00S  
WHEELER FIELD CLOUDY 71 68 90 CALM 30.05S  
BELLOWS* NOT AVBL  
KAHUKU* NOT AVBL  
WHEELER* NOT AVBL  
WAIANAE HARBOR NOT AVBL  
DILLINGHAM* N/A 73 72 94 CALM N/A  
KAHUKU TRN* N/A 72 72 100 CALM N/A  
KAWAILOA* NOT AVBL  
KII* N/A 73 72 94 SE2 N/A  
MAKUA RANGE* N/A 73 70 88 SE2 N/A  
OAHU FOREST NW NOT AVBL  
SCHOFIELD BRK* N/A 70 68 94 SW2 N/A  
SCHOFIELD S* NOT AVBL  
WAIANAE VLY* NOT AVBL  
KUAOKALA* NOT AVBL  
HONOULIUULI* NOT AVBL  
MOKUOLOE IS* NOT AVBL  
PALEHUA* NOT AVBL  
WAIAWA PHB* NOT AVBL  

 
 
HIZ037>041-211600-  
MOLOKAI-  
 
CITY SKY/WX TMP DP RH WIND PRES REMARKS
 
MOLOKAI AIRPT MOCLDY 72 69 90 CALM 30.05R  
KALAUPAPA NOT AVBL  
MAKAPULAPAI* NOT AVBL  
MOLOKAI 1* NOT AVBL  
PUU ALII* NOT AVBL  

 
 
HIZ015-042>044-211600-  
LANAI-  
 
CITY SKY/WX TMP DP RH WIND PRES REMARKS
 
LANAI CITY FAIR 66 N/A N/A E3 30.10R  
LANAI 1* NOT AVBL  

 
 
HIZ016-211600-  
KAHOOLAWE-  
 
CITY SKY/WX TMP DP RH WIND PRES REMARKS
 
KAHOOLAWE* NOT AVBL  
HAKIOAWA* NOT AVBL  
HONOKANAIA* NOT AVBL  
KANELOA* N/A 73 70 88 E7G15 30.09R  
KEALIALALO* NOT AVBL  
LUA MAKIKA* NOT AVBL  

 
 
HIZ017-018-022-045>050-211600-  
MAUI-  
 
CITY SKY/WX TMP DP RH WIND PRES REMARKS
 
KAHULUI CLEAR 72 66 81 SE5 30.03R  
KAPALUA-W MAUI N/A 72 66 83 SE5 30.04  
HANA AIRPORT NOT AVBL  
HANA* NOT AVBL  
HALEAKALA SUMM N/A 46 32 57 E3 N/A VSB 0  
MAALAEA BAY* NOT AVBL  
HALEAKALA* NOT AVBL  
KAUPO GAP* NOT AVBL  
KULA 1* N/A 53 33 47 E3 N/A  

 
 
HIZ023-026-051>054-211600-  
BIG ISLAND OF HAWAII COAST AND LOWER SLOPES-  
 
CITY SKY/WX TMP DP RH WIND PRES REMARKS
 
KAILUA KONA PTCLDY 78 71 79 S7 30.01R  
HILO CLOUDY 73 67 81 SW5 30.04R  
HONOKAA* NOT AVBL  
KAWAIHAE MWT* NOT AVBL  
KAWAIHAE* N/A N/A N/A N/A MISG N/A  
SOUTH POINT* NOT AVBL  
UPOLU AIRPORT* NOT AVBL  
KAMUELA* NOT AVBL  
HAKALAU* N/A 46 36 66 SW3 N/A  
KALOKO-HONOKO* NOT AVBL  
PALI 2* N/A 64 63 94 NE2 N/A  
KEALAKOMO* N/A 73 68 83 N6 N/A  
KAUPULEHU* NOT AVBL  
KAPAPALA* N/A 66 60 81 NE3 N/A  
LOWER KAHUKU* NOT AVBL  
PUHE CS* NOT AVBL  
PUHO CS* NOT AVBL  
PTA KEAMUKU* NOT AVBL  
WAIKOLOA* NOT AVBL  

 
 
HIZ027-028-211600-  
BIG ISLAND OF HAWAII INTERIOR AND SUMMMITS-  
 
CITY SKY/WX TMP DP RH WIND PRES REMARKS
 
BRADSHAW FIELD PTCLDY 50 38 62 E3 30.35R  
MK VISITOR CEN N/A 46 36 66 N3 N/A  
MAUNA KEA* N/A 32 32 100 N14 N/A WCI 22  
MAUNA LOA* NOT AVBL  
MAUNA LOA 1* NOT AVBL  
PTA KIPUKA* N/A 48 46 93 SE3 N/A  
PTA RANGE 17* N/A 54 39 58 E3G12 N/A  
PTA WEST* N/A 52 46 82 SE10 N/A  
NENE CABIN* NOT AVBL  
AHUMOA* NOT AVBL  
PTA PORTABLE* NOT AVBL  
PUU MALI* N/A 55 37 50 S6 N/A  

 
 
HIC003-211600-  
NORTHWEST ISLANDS-  
 
CITY SKY/WX TMP DP RH WIND PRES REMARKS
 
MIDWAY ISLAND CLOUDY 72 64 78 N5 30.03S  
MIDWAY NOS* NOT AVBL  
FRENCH FRIGATE NOT AVBL  

 
 
PHZ110>124-180-211600-  
BUOY REPORTS  
 
STATION/POSITION TIME TEMP WIND PRES WAVE SWELL
 
AIR SEA DIR/SP/G HT/PER HT/DIR  
(UTC) (F) (DEG/KT/KT) (MB) (FT/S) (FT/D)  
BUOY 51101 1450 77 77 110/ 6/ 8 1017.0R 5/ 8 5/100  
BUOY 51100 NOT AVBL  
BUOY 51002 1450 77 78 80/ 16/ 19 1014.9R 6/ 8 3/110  
BUOY 51003 1450 77 79 110/ 8/ 12 1016.1R 6/ 8 5/180  
BUOY 51004 1450 76 76 60/ 14/ 17 1014.5R 6/ 8 5/ 90  
WAIMEA BAY# 1456 79 N/A 3/ 8 2/290  
MOKAPU POINT# 1456 78 N/A 3/ 8 2/140  
LANAI# NOT AVBL  
BARBERS PT# 1430 78 N/A 4/13 3/190  
PAUWELA# NOT AVBL  
HILO# 1445 77 N/A 5/ 8 2/ 10  
KANEOHE BAY# 1426 78 N/A 4/ 8 2/350  
KANEOHE BAY 2# NOT AVBL  
HANALEI# 1426 78 N/A 4/10 2/320  
KAHULUI HARBOR 1430 74 79 350/ 2/ 3 1016.8R  
HONOLULU HARBOR 1430 76 79 40/ 1/ 2 1017.1R  
PEARL HARBOR# 1400 77 79 N/A 3/12 2/170  
KILO NALU NOT AVBL  
HILO HARBOR 1430 74 78 240/ 1/ 3 1016.1R  
MOKUOLOE 1436 75 80 280/ 2/ 3 1016.8R  
NAWILIWILI 1430 73 82 240/ 5/ 5 1017.3R  
WHOTS BUOY NOT AVBL  
BUOY 51028 NOT AVBL  

 
   
.....................KEY.....................................
 
 
SKY/WX - SKY CONDITIONS/PRESENT WEATHER  
TMP - TEMPERATURE IN FAHRENHEIT  
DWPT - DEWPOINT IN FAHRENHEIT  
RH - RELATIVE HUMIDITY IN PERCENT  
WIND - DIRECTION AND SPEED /MPH FOR ISLANDS...KTS FOR BUOYS/  
PRES - MEAN SEA LEVEL PRESSURE IN INCHES OF HG  
VSB - VISIBILITY IN MILES  
HX - HEAT INDEX  
WCI - WIND CHILL INDEX  
VRB - VARIABLE WIND DIRECTION  
N/A - NOT AVAILABLE  
 
 
CLICK HERE TO GO TO PREVIOUS BULLETINS.

The Nexlab HI Page Main Text Page